Time,TemperatureF,DewpointF,PressureIn,WindDirection,WindDirectionDegrees,WindSpeedMPH,WindSpeedGustMPH,Humidity,HourlyPrecipIn,Conditions,Clouds,dailyrainin,SoftwareType,DateUTC
2013-04-25 00:06:00,54.2,50.0,29.94,SSW,203,0.0,5.0,84,0.00,,,0.00,weatherlink.com 1.10,2013-04-25 07:06:00,
2013-04-25 00:21:00,54.1,50.0,29.93,WSW,244,0.0,4.0,85,0.00,,,0.00,weatherlink.com 1.10,2013-04-25 07:21:00,
2013-04-25 00:36:00,54.0,50.0,29.93,WSW,243,1.0,4.0,85,0.00,,,0.00,weatherlink.com 1.10,2013-04-25 07:36:00,
2013-04-25 00:51:00,53.9,50.0,29.92,SW,232,0.0,3.0,86,0.00,,,0.00,weatherlink.com 1.10,2013-04-25 07:51:00,
2013-04-25 01:06:00,53.9,50.0,29.92,SW,232,2.0,3.0,86,0.00,,,0.00,weatherlink.com 1.10,2013-04-25 08:06:00,
2013-04-25 01:21:00,53.8,50.0,29.92,SW,232,0.0,3.0,86,0.00,,,0.00,weatherlink.com 1.10,2013-04-25 08:21:00,
2013-04-25 01:36:00,53.7,50.0,29.92,SW,232,0.0,3.0,86,0.00,,,0.00,weatherlink.com 1.10,2013-04-25 08:36:00,
2013-04-25 01:51:00,53.7,50.0,29.92,SW,232,0.0,4.0,86,0.00,,,0.00,weatherlink.com 1.10,2013-04-25 08:51:00,
2013-04-25 02:06:00,53.7,50.0,29.92,SW,232,0.0,3.0,86,0.00,,,0.00,weatherlink.com 1.10,2013-04-25 09:06:00,
2013-04-25 02:21:00,53.7,50.0,29.92,SW,215,0.0,4.0,86,0.00,,,0.00,weatherlink.com 1.10,2013-04-25 09:21:00,
2013-04-25 02:36:00,53.5,50.0,29.91,SW,226,0.0,5.0,87,0.00,,,0.00,weatherlink.com 1.10,2013-04-25 09:36:00,
2013-04-25 02:51:00,53.4,50.0,29.91,SSW,206,2.0,5.0,87,0.00,,,0.00,weatherlink.com 1.10,2013-04-25 09:51:00,
2013-04-25 03:06:00,53.3,50.0,29.91,SW,235,3.0,4.0,87,0.00,,,0.00,weatherlink.com 1.10,2013-04-25 10:06:00,
2013-04-25 03:21:00,53.2,50.0,29.92,WSW,252,0.0,5.0,87,0.00,,,0.00,weatherlink.com 1.10,2013-04-25 10:21:00,
2013-04-25 03:36:00,53.2,50.0,29.92,SSW,209,0.0,5.0,87,0.00,,,0.00,weatherlink.com 1.10,2013-04-25 10:36:00,
2013-04-25 03:51:00,53.2,50.0,29.92,SW,218,0.0,4.0,87,0.00,,,0.00,weatherlink.com 1.10,2013-04-25 10:51:00,
2013-04-25 04:06:00,53.3,49.0,29.93,SW,218,0.0,3.0,86,0.00,,,0.00,weatherlink.com 1.10,2013-04-25 11:06:00,
2013-04-25 04:21:00,53.4,49.0,29.93,SW,221,1.0,4.0,85,0.00,,,0.00,weatherlink.com 1.10,2013-04-25 11:21:00,
2013-04-25 04:36:00,53.5,49.0,29.93,SW,221,0.0,3.0,84,0.00,,,0.00,weatherlink.com 1.10,2013-04-25 11:36:00,
2013-04-25 04:51:00,53.6,49.0,29.93,SW,224,0.0,1.0,84,0.00,,,0.00,weatherlink.com 1.10,2013-04-25 11:51:00,
2013-04-25 05:06:00,53.6,49.0,29.93,SW,224,2.0,3.0,84,0.00,,,0.00,weatherlink.com 1.10,2013-04-25 12:06:00,
2013-04-25 05:21:00,53.5,49.0,29.94,NW,309,0.0,6.0,83,0.00,,,0.00,weatherlink.com 1.10,2013-04-25 12:21:00,
2013-04-25 05:36:00,53.3,48.0,29.94,NNW,340,2.0,5.0,83,0.00,,,0.00,weatherlink.com 1.10,2013-04-25 12:36:00,
2013-04-25 05:51:00,53.1,49.0,29.94,NNW,339,1.0,3.0,85,0.00,,,0.00,weatherlink.com 1.10,2013-04-25 12:51:00,
2013-04-25 06:06:00,53.1,49.0,29.95,NW,321,0.0,3.0,85,0.00,,,0.00,weatherlink.com 1.10,2013-04-25 13:06:00,
2013-04-25 06:21:00,53.0,49.0,29.95,NW,321,0.0,3.0,85,0.00,,,0.00,weatherlink.com 1.10,2013-04-25 13:21:00,
2013-04-25 06:36:00,53.0,49.0,29.96,SW,223,0.0,4.0,86,0.00,,,0.00,weatherlink.com 1.10,2013-04-25 13:36:00,
2013-04-25 06:51:00,52.9,49.0,29.97,WNW,300,0.0,5.0,86,0.00,,,0.00,weatherlink.com 1.10,2013-04-25 13:51:00,
2013-04-25 07:06:00,53.0,49.0,29.97,WNW,300,1.0,3.0,86,0.00,,,0.00,weatherlink.com 1.10,2013-04-25 14:06:00,
2013-04-25 07:21:00,53.1,49.0,29.98,NW,304,0.0,4.0,85,0.00,,,0.00,weatherlink.com 1.10,2013-04-25 14:21:00,
2013-04-25 07:36:00,53.4,49.0,29.98,NW,304,1.0,3.0,85,0.00,,,0.00,weatherlink.com 1.10,2013-04-25 14:36:00,
2013-04-25 07:51:00,53.9,49.0,29.98,NW,304,0.0,4.0,84,0.00,,,0.00,weatherlink.com 1.10,2013-04-25 14:51:00,
2013-04-25 08:06:00,54.5,49.0,29.99,NW,305,1.0,4.0,83,0.00,,,0.00,weatherlink.com 1.10,2013-04-25 15:06:00,
2013-04-25 08:21:00,54.8,49.0,29.99,NW,307,0.0,4.0,81,0.00,,,0.00,weatherlink.com 1.10,2013-04-25 15:21:00,
2013-04-25 08:36:00,55.3,49.0,29.99,WSW,252,1.0,5.0,80,0.00,,,0.00,weatherlink.com 1.10,2013-04-25 15:36:00,
2013-04-25 08:52:00,56.2,49.0,30.00,West,261,1.0,3.0,78,0.00,,,0.00,weatherlink.com 1.10,2013-04-25 15:52:00,
2013-04-25 09:07:00,56.6,49.0,30.00,NW,315,1.0,4.0,76,0.00,,,0.00,weatherlink.com 1.10,2013-04-25 16:07:00,
2013-04-25 09:22:00,56.8,49.0,30.01,WSW,240,0.0,7.0,74,0.00,,,0.00,weatherlink.com 1.10,2013-04-25 16:22:00,
2013-04-25 09:37:00,58.5,49.0,30.02,SSW,206,7.0,7.0,72,0.00,,,0.00,weatherlink.com 1.10,2013-04-25 16:37:00,
2013-04-25 09:52:00,59.0,48.0,30.02,WNW,297,0.0,8.0,68,0.00,,,0.00,weatherlink.com 1.10,2013-04-25 16:52:00,
2013-04-25 10:07:00,58.9,49.0,30.02,WSW,252,0.0,6.0,70,0.00,,,0.00,weatherlink.com 1.10,2013-04-25 17:07:00,
2013-04-25 10:22:00,59.3,50.0,30.02,WSW,248,1.0,7.0,70,0.00,,,0.00,weatherlink.com 1.10,2013-04-25 17:22:00,
2013-04-25 10:37:00,59.9,49.0,30.03,SW,224,1.0,7.0,67,0.00,,,0.00,weatherlink.com 1.10,2013-04-25 17:37:00,
2013-04-25 10:52:00,61.4,49.0,30.03,SW,226,2.0,7.0,64,0.00,,,0.00,weatherlink.com 1.10,2013-04-25 17:52:00,
2013-04-25 11:07:00,61.6,49.0,30.03,SSW,192,4.0,9.0,63,0.00,,,0.00,weatherlink.com 1.10,2013-04-25 18:07:00,
2013-04-25 11:22:00,62.6,49.0,30.02,SW,220,0.0,7.0,62,0.00,,,0.00,weatherlink.com 1.10,2013-04-25 18:22:00,
2013-04-25 11:37:00,63.6,48.0,30.02,SSW,201,2.0,11.0,58,0.00,,,0.00,weatherlink.com 1.10,2013-04-25 18:37:00,
2013-04-25 11:52:00,64.3,49.0,30.02,WSW,240,2.0,8.0,59,0.00,,,0.00,weatherlink.com 1.10,2013-04-25 18:52:00,
2013-04-25 12:07:00,65.4,49.0,30.02,WSW,245,1.0,7.0,55,0.00,,,0.00,weatherlink.com 1.10,2013-04-25 19:07:00,
2013-04-25 12:22:00,64.8,48.0,30.01,SW,233,4.0,8.0,55,0.00,,,0.00,weatherlink.com 1.10,2013-04-25 19:22:00,
2013-04-25 12:37:00,64.8,48.0,30.00,SSW,194,4.0,10.0,54,0.00,,,0.00,weatherlink.com 1.10,2013-04-25 19:37:00,
2013-04-25 12:52:00,66.2,48.0,30.01,SSW,207,0.0,10.0,52,0.00,,,0.00,weatherlink.com 1.10,2013-04-25 19:52:00,
2013-04-25 13:07:00,66.3,47.0,30.00,SSW,197,4.0,12.0,51,0.00,,,0.00,weatherlink.com 1.10,2013-04-25 20:07:00,
2013-04-25 13:22:00,66.9,48.0,30.00,SSW,197,7.0,12.0,51,0.00,,,0.00,weatherlink.com 1.10,2013-04-25 20:22:00,
2013-04-25 13:37:00,67.9,48.0,30.00,SW,221,0.0,12.0,50,0.00,,,0.00,weatherlink.com 1.10,2013-04-25 20:37:00,
2013-04-25 13:52:00,68.7,49.0,30.00,WNW,294,0.0,12.0,49,0.00,,,0.00,weatherlink.com 1.10,2013-04-25 20:52:00,
2013-04-25 14:07:00,69.4,48.0,29.99,South,185,7.0,11.0,47,0.00,,,0.00,weatherlink.com 1.10,2013-04-25 21:07:00,
2013-04-25 14:22:00,69.3,49.0,29.99,SSW,197,3.0,10.0,48,0.00,,,0.00,weatherlink.com 1.10,2013-04-25 21:22:00,
2013-04-25 14:37:00,69.8,48.0,29.98,SW,235,5.0,10.0,46,0.00,,,0.00,weatherlink.com 1.10,2013-04-25 21:37:00,
2013-04-25 14:52:00,70.9,48.0,29.98,SW,225,2.0,9.0,44,0.00,,,0.00,weatherlink.com 1.10,2013-04-25 21:52:00,
2013-04-25 15:07:00,69.7,47.0,29.98,NW,318,1.0,9.0,45,0.00,,,0.00,weatherlink.com 1.10,2013-04-25 22:07:00,
2013-04-25 15:22:00,69.7,47.0,29.98,South,171,4.0,15.0,44,0.00,,,0.00,weatherlink.com 1.10,2013-04-25 22:22:00,
2013-04-25 15:37:00,70.8,47.0,29.98,SSW,194,7.0,12.0,43,0.00,,,0.00,weatherlink.com 1.10,2013-04-25 22:37:00,
2013-04-25 15:52:00,69.7,47.0,29.98,SSW,197,8.0,12.0,44,0.00,,,0.00,weatherlink.com 1.10,2013-04-25 22:52:00,
2013-04-25 16:07:00,69.9,47.0,29.98,SSW,198,4.0,13.0,44,0.00,,,0.00,weatherlink.com 1.10,2013-04-25 23:07:00,
2013-04-25 16:22:00,70.6,47.0,29.98,WSW,246,4.0,8.0,43,0.00,,,0.00,weatherlink.com 1.10,2013-04-25 23:22:00,
2013-04-25 16:37:00,69.7,47.0,29.98,SSW,192,2.0,11.0,44,0.00,,,0.00,weatherlink.com 1.10,2013-04-25 23:37:00,
2013-04-25 16:52:00,70.1,46.0,29.98,SW,227,5.0,10.0,43,0.00,,,0.00,weatherlink.com 1.10,2013-04-25 23:52:00,
2013-04-25 17:07:00,69.0,47.0,29.98,NNE,19,0.0,9.0,45,0.00,,,0.00,weatherlink.com 1.10,2013-04-26 00:07:00,
2013-04-25 17:22:00,69.0,47.0,29.98,SSW,196,7.0,10.0,45,0.00,,,0.00,weatherlink.com 1.10,2013-04-26 00:22:00,
2013-04-25 17:38:00,67.8,47.0,29.98,SSW,207,3.0,9.0,47,0.00,,,0.00,weatherlink.com 1.10,2013-04-26 00:38:00,
2013-04-25 17:53:00,68.1,47.0,29.98,WSW,239,2.0,8.0,47,0.00,,,0.00,weatherlink.com 1.10,2013-04-26 00:53:00,
2013-04-25 18:08:00,67.6,47.0,29.98,WSW,244,0.0,6.0,48,0.00,,,0.00,weatherlink.com 1.10,2013-04-26 01:08:00,
2013-04-25 18:23:00,66.9,46.0,29.98,SW,221,1.0,8.0,48,0.00,,,0.00,weatherlink.com 1.10,2013-04-26 01:23:00,
2013-04-25 18:38:00,65.8,46.0,29.99,NW,319,2.0,8.0,49,0.00,,,0.00,weatherlink.com 1.10,2013-04-26 01:38:00,
2013-04-25 18:53:00,65.0,46.0,29.99,SW,235,0.0,5.0,51,0.00,,,0.00,weatherlink.com 1.10,2013-04-26 01:53:00,
2013-04-25 19:08:00,64.4,46.0,29.99,NW,306,0.0,5.0,52,0.00,,,0.00,weatherlink.com 1.10,2013-04-26 02:08:00,
2013-04-25 19:23:00,63.3,46.0,30.00,WNW,293,2.0,6.0,54,0.00,,,0.00,weatherlink.com 1.10,2013-04-26 02:23:00,
2013-04-25 19:38:00,62.3,46.0,30.00,NW,313,0.0,6.0,56,0.00,,,0.00,weatherlink.com 1.10,2013-04-26 02:38:00,
2013-04-25 19:53:00,61.6,46.0,30.01,NW,312,0.0,4.0,57,0.00,,,0.00,weatherlink.com 1.10,2013-04-26 02:53:00,
2013-04-25 20:08:00,60.8,46.0,30.02,NW,313,0.0,2.0,59,0.00,,,0.00,weatherlink.com 1.10,2013-04-26 03:08:00,
2013-04-25 20:23:00,60.1,46.0,30.02,NW,313,0.0,1.0,60,0.00,,,0.00,weatherlink.com 1.10,2013-04-26 03:23:00,
2013-04-25 20:38:00,59.4,46.0,30.03,NW,313,0.0,1.0,62,0.00,,,0.00,weatherlink.com 1.10,2013-04-26 03:38:00,
2013-04-25 20:53:00,58.8,46.0,30.03,NW,313,0.0,1.0,63,0.00,,,0.00,weatherlink.com 1.10,2013-04-26 03:53:00,
2013-04-25 21:08:00,58.0,46.0,30.04,NW,313,0.0,0.0,64,0.00,,,0.00,weatherlink.com 1.10,2013-04-26 04:08:00,
2013-04-25 21:23:00,57.1,45.0,30.05,NW,313,0.0,0.0,65,0.00,,,0.00,weatherlink.com 1.10,2013-04-26 04:23:00,
2013-04-25 21:38:00,56.1,45.0,30.05,NW,313,0.0,0.0,66,0.00,,,0.00,weatherlink.com 1.10,2013-04-26 04:38:00,
2013-04-25 21:53:00,55.0,44.0,30.05,NW,313,0.0,0.0,67,0.00,,,0.00,weatherlink.com 1.10,2013-04-26 04:53:00,
2013-04-25 22:08:00,54.1,44.0,30.06,NW,313,0.0,0.0,69,0.00,,,0.00,weatherlink.com 1.10,2013-04-26 05:08:00,
2013-04-25 22:23:00,53.4,44.0,30.06,NW,313,0.0,0.0,71,0.00,,,0.00,weatherlink.com 1.10,2013-04-26 05:23:00,
2013-04-25 22:38:00,52.8,44.0,30.07,NW,313,0.0,0.0,72,0.00,,,0.00,weatherlink.com 1.10,2013-04-26 05:38:00,
2013-04-25 22:53:00,52.2,43.0,30.07,NW,313,0.0,0.0,72,0.00,,,0.00,weatherlink.com 1.10,2013-04-26 05:53:00,
2013-04-25 23:08:00,52.2,44.0,30.07,NW,313,0.0,1.0,73,0.00,,,0.00,weatherlink.com 1.10,2013-04-26 06:08:00,
2013-04-25 23:23:00,51.9,43.0,30.07,NW,313,1.0,1.0,73,0.00,,,0.00,weatherlink.com 1.10,2013-04-26 06:23:00,
2013-04-25 23:38:00,51.7,43.0,30.08,NW,314,0.0,0.0,73,0.00,,,0.00,weatherlink.com 1.10,2013-04-26 06:38:00,
2013-04-25 23:53:00,51.5,43.0,30.08,ENE,58,0.0,2.0,73,0.00,,,0.00,weatherlink.com 1.10,2013-04-26 06:53:00,